Location: Chippewa Lake
(41.0698°N, 81.9010°W)
Time: 02:14:37
(UTC+00:00)

Okean 2 - Pass Details

Date: 09 May 2021
Orbit: 558 x 577 km, 82.5° (Epoch: 24 June)

Event Time Altitude Azimuth Distance (km) Brightness Sun altitude
Exits shadow 07:11:18 51° 353° (N) 735 4.1 -26.4°
Drops below altitude 10° 07:14:29 10° 5° (N) 1,897 6.9 -26.1°
Sets 07:16:41 0° 7° (N) 2,799 8.0 -25.9°
